Glens Falls, NY

12:53 AM EST on November 25, 2017 (GMT -0500)
Bennett Memorial

Weather History for KGFL - December, 2014

Change the Weather History Date:

Sunday, December 7, 2014

  Actual Average Record
Temperature  
Mean Temperature 23 °F 28 °F  
Max Temperature 34 °F 37 °F 67 °F (1998)
Min Temperature 12 °F 20 °F 0 °F (1964)
Degree Days  
Heating Degree Days 42 36  
Month to date heating degree days 248 246  
Since 1 July heating degree days 1709 1944  
Cooling Degree Days 0 0  
Month to date cooling degree days 0 0  
Year to date cooling degree days 392 352  
Moisture  
Dew Point 14 °F    
Average Humidity 66    
Maximum Humidity 82    
Minimum Humidity 50    
Precipitation  
Precipitation 0.00 in 0.11 in 1.39 in (1976)
Month to date precipitation 1.20 0.78  
Year to date precipitation 33.55 36.79  
Sea Level Pressure  
Sea Level Pressure 30.65 in    
Wind  
Wind Speed 10 mph (NE)    
Max Wind Speed 21 mph    
Max Gust Speed 24 mph    
Visibility 10 miles    
Events      
T = Trace of Precipitation, MM = Missing Value Source: NWS Daily Summary

Daily Weather History Graph

Daily Weather History Graph

Search for Another Location

Airport or City:

Trip Planner

Search our weather history database for the weather conditions in past years. The results will help you decide how hot, cold, wet, or windy it might be!

Date:

Astronomy

Dec. 07, 2014 Rise Set
Actual Time 7:13 AM EST 4:18 PM EST
Civil Twilight 6:40 AM EST 4:50 PM EST
Nautical Twilight 6:05 AM EST 5:26 PM EST
Astronomical Twilight 5:30 AM EST 6:01 PM EST
Moon 5:46 PM EST (12/7) 7:53 AM EST (12/7)
Length of Visible Light 10h 10m
Length of Day
9h 05m
Full, 98% of the Moon is Illuminated
Dec 7
Full
Dec 14
Last Quarter
Dec 21
New
Dec 28
First Quarter
Jan 4
Full

Hourly Weather History & Observations

Time (EST) Temp. Windchill Dew Point Humidity Pressure Visibility Wind Dir Wind Speed Gust Speed Precip Events Conditions
12:53 AM 34.0 °F 27.2 °F 28.0 °F 79% 30.40 in 10.0 mi NE 8.1 mph - N/A   Overcast
1:05 AM 34.0 °F 26.6 °F 27.0 °F 75% 30.38 in 10.0 mi NNE 9.2 mph - N/A   Overcast
1:53 AM 34.0 °F 26.6 °F 24.1 °F 67% 30.44 in 10.0 mi North 9.2 mph - N/A   Overcast
2:53 AM 33.1 °F 24.9 °F 23.0 °F 66% 30.47 in 10.0 mi North 10.4 mph - N/A   Overcast
3:53 AM 32.0 °F 25.6 °F 23.0 °F 69% 30.49 in 10.0 mi NNE 6.9 mph - N/A   Overcast
4:53 AM 30.9 °F 25.2 °F 24.1 °F 76% 30.51 in 10.0 mi NNE 5.8 mph - N/A   Overcast
5:53 AM 28.9 °F 17.7 °F 19.9 °F 69% 30.56 in 10.0 mi NE 15.0 mph - N/A   Overcast
6:34 AM 28.0 °F 17.5 °F 18.0 °F 66% 30.56 in 10.0 mi North 12.7 mph - N/A   Overcast
6:53 AM 28.0 °F 19.3 °F 17.1 °F 63% 30.61 in 10.0 mi NNE 9.2 mph - N/A   Overcast
7:53 AM 25.0 °F 13.6 °F 16.0 °F 69% 30.64 in 10.0 mi NE 12.7 mph - N/A   Partly Cloudy
8:53 AM 24.1 °F 13.7 °F 14.0 °F 65% 30.68 in 10.0 mi NE 10.4 mph - N/A   Clear
9:53 AM 24.1 °F 11.0 °F 9.0 °F 53% 30.69 in 10.0 mi North 16.1 mph - N/A   Clear
10:53 AM 24.1 °F 11.5 °F 10.9 °F 57% 30.69 in 10.0 mi NE 15.0 mph - N/A   Clear
11:53 AM 24.8 °F 11.5 °F 10.4 °F 54% 30.65 in 10.0 mi NE 17.3 mph - N/A   Clear
12:53 PM 25.0 °F 15.5 °F 12.0 °F 58% 30.68 in 10.0 mi NE 9.2 mph - N/A   Clear
1:53 PM 23.0 °F 10.6 °F 12.0 °F 63% 30.69 in 10.0 mi ENE 13.8 mph 21.9 mph N/A   Clear
2:53 PM 21.9 °F 9.2 °F 10.0 °F 60% 30.72 in 10.0 mi NE 13.8 mph - N/A   Clear
3:53 PM 19.9 °F 7.3 °F 9.0 °F 62% 30.74 in 10.0 mi NE 12.7 mph - N/A   Clear
4:53 PM 19.0 °F 6.8 °F 8.1 °F 62% 30.76 in 10.0 mi NE 11.5 mph - N/A   Clear
5:53 PM 18.0 °F 8.7 °F 8.1 °F 65% 30.79 in 10.0 mi NE 6.9 mph - N/A   Clear
6:53 PM 17.1 °F 6.6 °F 6.1 °F 62% 30.81 in 10.0 mi NE 8.1 mph - N/A   Clear
7:53 PM 16.0 °F 3.6 °F 5.0 °F 62% 30.80 in 10.0 mi ENE 10.4 mph - N/A   Clear
8:53 PM 15.1 °F 3.3 °F 5.0 °F 64% 30.80 in 10.0 mi ENE 9.2 mph - N/A   Clear
9:53 PM 15.1 °F 5.2 °F 3.9 °F 61% 30.79 in 10.0 mi NE 6.9 mph - N/A   Clear
10:53 PM 12.9 °F 5.2 °F 5.0 °F 71% 30.80 in 10.0 mi ENE 4.6 mph - N/A   Clear
11:53 PM 12.9 °F 5.2 °F 3.0 °F 65% 30.79 in 10.0 mi ENE 4.6 mph - N/A   Clear